Hourly Data Report for September 22, 2017

All times are specified in Local Standard Time (LST). Add 1 hour to adjust for Daylight Saving Time where and when it is observed.

MISCOU ISLAND (AUT)
NEW BRUNSWICK

48°00'32.002" N
64°29'39.008" W
4.00 m
8103050
71719
WMI

Download Data

Hourly Data (September 2017)
Hourly Data Report for September 22, 2017
Temp Definition
°C
Dew Point Temp Definition
°C
Rel Hum Definition
%
Wind Dir Definition
10's deg

Wind Spd Definition
km/h
Visibility Definition
km
Stn Press Definition
kPa
Hmdx Definition


Wind Chill Definition


Weather Definition


TIME
00:00 5.8 4.3 90 21 6   102.32     LegendNANA
01:00 7.0 5.3 89 23 6   102.34     LegendNANA
02:00 6.3 4.6 89 23 7   102.31     LegendNANA
03:00 5.7 4.5 92 21 10   102.29     LegendNANA
04:00 6.5 5.5 93 23 12   102.27     LegendNANA
05:00 7.6 6.6 93 25 9   102.25     LegendNANA
06:00 8.7 7.9 94 25 8   102.28     LegendNANA
07:00 10.4 9.5 94 22 8   102.26     LegendNANA
08:00 13.2 11.9 92 23 11   102.25     LegendNANA
09:00 14.7 11.2 79 23 17   102.24     LegendNANA
10:00 15.5 11.8 79 23 24   102.19     LegendNANA
11:00 16.7 11.6 72 23 22   102.14     LegendNANA
12:00 17.1 10.2 64 23 24   102.10     LegendNANA
13:00 18.5 9.6 56 23 21   102.03     LegendNANA
14:00 19.6 10.4 55 23 19   101.98     LegendNANA
15:00 20.7 10.5 52 22 18   101.91     LegendNANA
16:00 20.7 11.5 55 22 16   101.86     LegendNANA
17:00 20.1 11.2 57 18 13   101.83     LegendNANA
18:00 16.9 11.9 72 17 15   101.77     LegendNANA
19:00 15.2 11.8 80 18 18   101.77     LegendNANA
20:00 14.1 10.7 80 19 16   101.72     LegendNANA
21:00 14.1 9.4 73 20 15   101.75     LegendNANA
22:00 13.5 9.4 76 20 14   101.71     LegendNANA
23:00 12.5 8.7 78 19 12   101.69     LegendNANA

Notes on Data Quality.

Legend

  • E = Estimated
  • M = Missing
  • NA = Not Available
  • ‡ = Partner data that is not subject to review by the National Climate Archives
Date modified: